www.pogodaiklimat.ru

Погода и климат >> Архив погоды >> Самоа >> Maota Int Airport


ПОГОДА в Maota Int Airport

  • Прогноз погоды в Maota Int Airport
  • Монитор погоды в Maota Int Airport
  • Климат города

АРХИВ ПОГОДЫ в Maota Int Airport

Время (UTC), дата Ветер
(напр.,м/с)
 
Видим.   Явления Облачность Т
(С)
Тd
(С)
f
(%)
Тe
(С)
Тes
(С)
Комфортность P
(гПа)
Po
(гПа)
Тmin
(С)
Tmax
(С)
R
(мм)
R24
(мм)
S
(см)
06 15.10 СВ 1 н/о н/о +26.3 +24.3 89 +37 +37 очень
душно
1012.5 1009.9
09 15.10 штиль 0 н/о н/о +24.4 +23.7 96 +33 +33 очень
душно
1014.1 1011.5
12 15.10 штиль 0 н/о н/о +23.5 +23.2 98 +31 +31 очень
душно
1012.4 1009.8 +30.9
15 15.10 штиль 0 н/о н/о +23.9 +22.9 94 +32 +32 очень
душно
1011.3 1008.7
18 15.10 штиль 0 н/о н/о +23.1 +23.1 100 +32 +32 очень
душно
1012.8 1010.2
21 15.10 В 1 н/о н/о +29.1 +25.0 79 +42 +42 опасность
перегрева
1013.8 1011.2
00 16.10 СВ 1 н/о н/о +30.9 +26.1 76 +47 +47 опасность
перегрева
1012.3 1009.7 +23.1
03 16.10 СВ 1 н/о н/о +29.6 +24.9 76 +42 +42 опасность
перегрева
1010.8 1008.2
06 16.10 СВ 1 н/о н/о +26.3 +23.7 86 +36 +36 очень
душно
1011.6 1009.0
09 16.10 штиль 0 н/о н/о +25.6 +23.4 88 +35 +35 очень
душно
1012.8 1010.2
15 16.10 штиль 0 н/о н/о +23.0 +22.8 99 +32 +32 очень
душно
1010.5 1007.9
18 16.10 СВ 1 н/о н/о +25.2 +23.8 92 +34 +34 очень
душно
1011.8 1009.2
21 16.10 В 1 н/о н/о +27.4 +26.3 94 +42 +42 опасность
перегрева
1012.7 1010.1
00 17.10 В 1 н/о н/о +29.5 +25.4 79 +43 +43 опасность
перегрева
1011.2 1008.6 +22.2
03 17.10 В 1 н/о н/о +28.8 +25.0 80 +42 +42 опасность
перегрева
1009.8 1007.2
06 17.10 СВ 1 н/о н/о +26.0 +24.2 90 +36 +36 очень
душно
1010.8 1008.2
09 17.10 штиль 0 н/о н/о +25.3 +24.8 97 +36 +36 очень
душно
1012.3 1009.7
12 17.10 штиль 0 н/о н/о +24.8 +24.1 96 +34 +34 очень
душно
1011.7 1009.1 +30.9
15 17.10 штиль 0 н/о н/о +23.7 +23.7 100 +32 +32 очень
душно
1011.1 1008.5
18 17.10 штиль 0 н/о н/о +24.9 +24.0 95 +34 +34 очень
душно
1012.6 1010.0
21 17.10 В 1 н/о н/о +29.1 +23.7 73 +40 +40 очень
душно
1013.4 1010.8
00 18.10 СВ 1 н/о н/о +30.0 +25.5 77 +44 +44 опасность
перегрева
1011.6 1009.0 +23.0
03 18.10 СВ 1 н/о н/о +28.6 +24.5 79 +41 +41 опасность
перегрева
1010.1 1007.5
06 18.10 В 1 н/о н/о +26.5 +24.3 88 +37 +37 очень
душно
1011.3 1008.7
09 18.10 штиль 0 н/о н/о +25.5 +24.1 92 +35 +35 очень
душно
1013.0 1010.4
12 18.10 штиль 0 н/о н/о +23.4 +23.2 99 +33 +33 очень
душно
1012.3 1009.7 +30.9
15 18.10 штиль 0 н/о н/о +23.4 +23.4 100 +33 +33 очень
душно
1011.1 1008.5
18 18.10 штиль 0 н/о н/о +23.7 +23.9 100 +32 +32 очень
душно
1012.5 1009.9
21 18.10 СВ 1 н/о н/о +29.6 +24.4 74 +42 +42 опасность
перегрева
1013.2 1010.6
00 19.10 СВ 1 н/о н/о +30.1 +25.1 75 +44 +44 опасность
перегрева
1011.4 1008.8 +22.9
03 19.10 СВ 1 н/о н/о +29.5 +24.8 76 +42 +42 опасность
перегрева
1009.4 1006.8
06 19.10 штиль 0 н/о н/о +26.4 +24.0 87 +37 +37 очень
душно
1010.5 1007.9
09 19.10 штиль 0 н/о н/о +26.1 +23.9 88 +36 +36 очень
душно
1012.9 1010.3
12 19.10 штиль 0 н/о н/о +23.4 +23.4 100 +33 +33 очень
душно
1011.6 1009.0 +30.8
15 19.10 штиль 0 н/о н/о +23.8 +23.6 99 +32 +32 очень
душно
1010.4 1007.8
18 19.10 штиль 0 н/о н/о +23.8 +23.6 99 +32 +32 очень
душно
1011.8 1009.2
21 19.10 В 1 н/о н/о +28.9 +25.3 81 +42 +42 опасность
перегрева
1013.0 1010.4
00 20.10 штиль 0 н/о н/о +28.4 +24.8 81 +41 +41 опасность
перегрева
1010.9 1008.3 +22.8
03 20.10 штиль 0 н/о н/о +26.0 +25.3 96 +38 +38 очень
душно
1009.8 1007.2
06 20.10 штиль 0 н/о н/о +25.0 +24.5 97 +35 +35 очень
душно
1011.4 1008.8
09 20.10 штиль 0 н/о н/о +24.4 +24.6 100 +34 +34 очень
душно
1012.3 1009.7
12 20.10 штиль 0 н/о н/о +24.0 +23.8 99 +33 +33 очень
душно
1010.1 1007.5 +31.3
15 20.10 штиль 0 н/о н/о +23.4 +23.6 100 +33 +33 очень
душно
1009.1 1006.5
18 20.10 В 1 н/о н/о +24.3 +24.0 98 +33 +33 очень
душно
1010.3 1007.7
21 20.10 В 1 н/о н/о +24.6 +24.1 97 +34 +34 очень
душно
1011.3 1008.7
00 21.10 СВ 1 н/о н/о +23.4 +23.4 100 +33 +33 очень
душно
1010.6 1008.0 +23.1
03 21.10 штиль 0 н/о н/о +23.9 +24.1 100 +33 +33 очень
душно
1009.0 1006.4
06 21.10 штиль 0 н/о н/о +24.4 +24.4 100 +34 +34 очень
душно
1010.4 1007.8
09 21.10 штиль 0 н/о н/о +24.0 +24.2 100 +33 +33 очень
душно
1011.9 1009.3
12 21.10 штиль 0 н/о н/о +23.9 +24.1 100 +33 +33 очень
душно
1010.3 1007.7 +29.1
15 21.10 СВ 1 н/о н/о +23.8 +24.0 100 +32 +32 очень
душно
1009.0 1006.4
18 21.10 СВ 1 н/о н/о +24.3 +23.4 95 +33 +33 очень
душно
1010.2 1007.6
21 21.10 штиль 0 н/о н/о +28.7 +25.3 82 +42 +42 опасность
перегрева
1010.9 1008.3
00 22.10 штиль 0 н/о н/о +27.8 +25.6 88 +41 +41 опасность
перегрева
1009.4 1006.8 +23.4
03 22.10 штиль 0 н/о н/о +25.1 +25.3 100 +36 +36 очень
душно
1008.3 1005.7

 

Местоположение метеостанции Maota Int Airport (Самоа): широта -13.74 долгота -172.26 высота над уровнем моря 23 м.

В архиве по умолчанию представлена погода в Maota Int Airport за последнюю неделю. Архивные данные за месяц целиком и за предыдущие месяцы, начиная с января 2011 года, Вы можете получить, выбрав интересующий диапазон дат из раскрывающегося списка и нажав кнопку "Ввод!".


*Определитесь, кто Вы:
робот инопланетянин человек

Внимание! Время в таблицах - всемирное. Для получения местного времени необходимо прибавить поправку, которая в Maota Int Airport равна 13 ч.

Смотрите также архив погоды в соседних городах и на ближайших метеорологических станциях:

Погода в Manono (Самоа) (20 км)
Погода в Faleolo Int Airport (Самоа) (28 км)
Погода в Faleolo Int Airport (Американское Самоа) (29 км)
Погода в Faleolo Int East (Самоа) (31 км)
Погода в Le Piu Tai (Самоа) (34 км)
Погода в Mount Talu (Самоа) (53 км)
Погода в Apia (Американское Самоа) (61 км)
Погода в Togitogiga (Самоа) (62 км)
Погода в Le Mafa (Самоа) (75 км)
Погода в Lufi-Lufi (Самоа) (77 км)

Пояснения к столбцам:

Ветер - указаны скорость ветра в м/с - средняя за 10 мин, порывы в срок и между сроками (в фигурных скобках) и направление, откуда дует ветер: С - северный, СВ - северо-восточный, В - восточный, ЮВ - юго-восточный, Ю - южный, ЮЗ - юго-западный, З - западный, СЗ - северо-западный.
Видимость - горизонтальная дальность видимости в метрах или километрах. При видимости от 1 до 10 км при отсутствии осадков обычно наблюдается дымка, при ухудшении видимости до 1 км и менее - туман. В сухую погоду видимость может ухудшаться дымом, пылью или мглою.
Явления - указаны атмосферные явления, наблюдавшиеся в срок или в последний час перед сроком; фигурными скобками обозначены явления, наблюдавшиеся между сроками (за 1-3 часа до срока); квадратными скобками обозначены град или гололедные отложения с указанием их диаметра в мм.
Облачность - указаны через наклонную черту общая и нижняя облачность в баллах и высота нижней границы облаков в метрах; квадратными скобками обозначены формы облаков: Ci - перистые, Cs - перисто-слоистые, Cc - перисто-кучевые, Ac - высококучевые, As - высокослоистые, Sc - слоисто-кучевые, Ns - слоисто-дождевые, Cu - кучевые, Cb - кучево-дождевые. Подробнее классификацию облаков см. в Атласе облаков (PDF).
T - Температура воздуха - температура, измеренная на высоте 2 м над землей.
Td - Температура точки росы - температура, при понижении до которой содержащийся в воздухе водяной пар достигнет насыщения.
f - Относительная влажность воздуха - влажноcть воздуха, измеренная на высоте 2 м над землей.
Te - Эффективная температура - температура, которую ощущает одетый по сезону человек в тени. Характеристика душности погоды. При расчете учитывается влияние влажности воздуха и скорости ветра на теплоощущения человека.
Tes - Эффективная температура на солнце - температура, которую ощущает человек, с поправкой на солнечный нагрев. Характеристика знойности погоды. Зависит от высоты солнца над горизонтом, облачности и скорости ветра. Ночью, в пасмурную погоду, а также при ветре 12 м/с и более поправка равна нулю.
P - Атмосферное давление - приведенное к уровню моря атмосферное давление.
Po - Атмосферное давление - измеренное на уровне метеостанции атмосферное давление.
Tmin - Минимальная температура - минимум температуры воздуха на высоте 2 м над землей.
Tmax - Максимальная температура - максимум температуры воздуха на высоте 2 м над землей.
R - Количество осадков - Количество выпавших осадков за период времени, мм. При наведении курсора мыши на число - период времени, за который выпало указанное количество осадков.
R24 - Количество осадков - Количество выпавших осадков за 24 часа, мм.
S - Снежный покров - Высота снежного покрова, см. При наведении курсора мыши на число - состояние снежного покрова и степень покрытия местности в баллах.